Location: Les Moreaux
(47.2278°N, 1.4966°E)
Time: 17:42:27
(UTC+00:00)

Cosmos 1420 Rocket - Pass Details

Date: 19 May 2025
Orbit: 750 x 777 km, 74.0° (Epoch: 13 June)

Event Time Altitude Azimuth Distance (km) Brightness Sun altitude
Rises 23:34:15 0° 339° (NNW) 3,270 8.5 -22.7°
Reaches altitude 10° 23:36:40 10° 341° (NNW) 2,337 7.5 -22.7°
Maximum altitude 23:41:59 72° 66° (ENE) 817 4.1 -22.8°
Enters shadow 23:43:25 48° 135° (SE) 1,009 4.3 -22.8°
